User: anonymous   Login
Location: Unspecified
(0.0000°N, 0.0000°E)
Time: 09:08:43
(UTC+02:00)
Language:

Delta 2 Rocket - Orbit

View from above orbital plane
View from above orbital plane
View from above satellite
View from above satellite

Ground track
Ground track

The orbit data is extracted from the following two-line orbital elements,

1 20453U 90008B   15143.83887571  .00003669  00000-0  22456-3 0  9998
2 20453 035.6267 335.9723 0305854 022.8995 338.5038 14.78548898336135
Epoch (UTC): 23 May 2015 20:07:58
Eccentricity: 0.0305854
inclination: 35.6267°
perigee height: 419 km
apogee height: 848 km
right ascension of ascending node: 335.9723°
argument of perigee: 22.8995°
revolutions per day: 14.78548898
mean anomaly at epoch: 338.5038°
orbit number at epoch: 33613

The dashed part of the orbit path shows where the satellite is in the earth's shadow,  

DLR